CW5102 Weather Reports


Display with metric or nautical units.
time (UTC)temp
F
wind
direction
speed
MPH
gust
MPH
rain 1hr
in
rain 24hr
in
rain mn
in
humidity
%
barometer
mb
20260902042203 72 20 0.0 0.0 0.00 0.00 0.00 64 1012.3
20260902041702 72 20 0.0 0.0 0.00 0.00 0.00 64 1012.2
20260902041203 72 20 0.0 0.0 0.00 0.00 0.00 64 1012.1
20260902040703 72 20 0.0 0.0 0.00 0.00 0.00 63 1012.1
20260902040202 72 20 0.0 0.0 0.00 0.00 0.00 63 1012.2
20260902035203 73 20 0.0 0.0 0.00 0.00 0.00 63 1011.8
20260902034702 73 19 0.0 0.0 0.00 0.00 0.00 62 1012.0
20260902034203 73 19 0.0 0.0 0.00 0.00 0.00 62 1012.2
20260902033702 73 19 0.0 0.0 0.00 0.00 0.00 62 1012.3
20260902033202 73 19 0.0 0.0 0.00 0.00 0.00 61 1012.5
20260902032203 73 19 0.0 0.0 0.00 0.00 0.00 61 1012.5
20260902031702 73 19 0.0 0.0 0.00 0.00 0.00 61 1012.7
20260902031202 73 19 0.0 0.0 0.00 0.00 0.00 60 1012.7
20260902030702 73 19 0.0 0.0 0.00 0.00 0.00 60 1012.8
20260902025703 74 19 0.0 0.0 0.00 0.00 0.00 61 1012.7
20260902025202 74 19 0.0 0.0 0.00 0.00 0.00 60 1012.6
20260902024703 74 19 0.0 0.0 0.00 0.00 0.00 59 1012.6
20260902024202 74 19 0.0 0.0 0.00 0.00 0.00 59 1012.5
20260902023202 74 19 0.0 0.0 0.00 0.00 0.00 59 1012.4
20260902022703 74 19 0.0 0.0 0.00 0.00 0.00 60 1012.4
20260902022202 75 19 0.0 0.0 0.00 0.00 0.00 60 1012.3
20260902021703 75 19 0.0 0.0 0.00 0.00 0.00 61 1012.3
20260902020703 75 19 0.0 0.0 0.00 0.00 0.00 62 1012.5
20260902020203 75 19 0.0 0.0 0.00 0.00 0.00 62 1012.5
20260902015703 75 19 0.0 0.0 0.00 0.00 0.00 61 1012.5
20260902015203 75 19 0.0 0.0 0.00 0.00 0.00 61 1012.4
20260902014703 75 19 0.0 0.0 0.00 0.00 0.00 62 1012.4
20260902014203 75 19 0.0 0.0 0.00 0.00 0.00 62 1012.3
20260902013702 75 19 0.0 0.0 0.00 0.00 0.00 61 1012.3
20260902013203 76 19 0.0 0.0 0.00 0.00 0.00 61 1012.4
20260902012703 76 19 0.0 0.0 0.00 0.00 0.00 61 1012.4
20260902011702 76 19 0.0 0.0 0.00 0.00 0.00 60 1012.3
20260902011202 76 19 0.0 0.0 0.00 0.00 0.00 59 1012.2
20260902010702 77 19 0.0 0.0 0.00 0.00 0.00 59 1012.2
20260902010203 77 19 0.0 0.0 0.00 0.00 0.00 58 1012.1
20260902005702 77 19 0.0 0.0 0.00 0.00 0.00 58 1012.0
20260902005202 77 19 0.0 0.0 0.00 0.00 0.00 58 1012.0
20260902004703 77 19 0.0 0.0 0.00 0.00 0.00 58 1012.0
20260902004203 78 19 0.0 0.0 0.00 0.00 0.00 57 1012.1
20260902003703 78 19 0.0 0.0 0.00 0.00 0.00 57 1012.1
20260902003203 78 19 0.0 0.0 0.00 0.00 0.00 57 1012.2
20260902002702 78 19 0.0 0.0 0.00 0.00 0.00 57 1012.3
20260902002202 78 19 0.0 0.0 0.00 0.00 0.00 56 1012.3
20260902001703 79 19 0.0 0.0 0.00 0.00 0.00 56 1012.3
20260902001203 79 19 0.0 0.0 0.00 0.00 0.00 55 1012.2
20260902000702 79 19 0.0 0.0 0.00 0.00 0.00 55 1012.3
20260901235704 79 19 0.0 0.0 0.00 0.00 0.00 54 1012.4
20260901235202 80 19 0.0 0.0 0.00 0.00 0.00 53 1012.5
20260901234202 80 19 0.0 0.0 0.00 0.00 0.00 53 1012.4
20260901233703 80 19 0.0 0.0 0.00 0.00 0.00 53 1012.5
20260901233203 80 19 0.0 0.0 0.00 0.00 0.00 53 1012.5
20260901232702 80 19 0.0 0.0 0.00 0.00 0.00 52 1012.5
20260901232203 81 20 0.0 0.0 0.00 0.00 0.00 53 1012.4
20260901231703 81 20 0.0 0.0 0.00 0.00 0.00 53 1012.5
20260901231203 81 20 0.0 0.0 0.00 0.00 0.00 53 1012.4
20260901230703 81 0 0.0 0.0 0.00 0.00 0.00 53 1012.6
20260901230203 81 0 0.0 0.0 0.00 0.00 0.00 54 1012.6
20260901225202 82 319 0.0 0.0 0.00 0.00 0.00 53 1012.5
20260901224703 82 319 0.0 0.0 0.00 0.00 0.00 52 1012.4
20260901224202 82 319 0.0 0.0 0.00 0.00 0.00 52 1012.3
20260901223702 82 319 0.0 0.0 0.00 0.00 0.00 52 1012.3
20260901223203 82 320 0.0 0.0 0.00 0.00 0.00 52 1012.3
20260901222202 83 321 0.0 0.0 0.00 0.00 0.00 51 1012.5
20260901221702 83 356 0.0 0.0 0.00 0.00 0.00 50 1012.4
20260901221202 83 20 0.0 0.0 0.00 0.00 0.00 50 1012.4
20260901220702 83 20 0.0 0.0 0.00 0.00 0.00 49 1012.4
20260901220202 83 20 0.0 0.0 0.00 0.00 0.00 50 1012.4
20260901215703 83 20 0.0 0.0 0.00 0.00 0.00 50 1012.4
20260901215202 83 20 0.0 0.0 0.00 0.00 0.00 48 1012.3
20260901214703 83 264 0.0 0.0 0.00 0.00 0.00 48 1012.4
20260901214202 83 264 0.0 0.0 0.00 0.00 0.00 47 1012.4
20260901213703 83 264 0.0 0.0 0.00 0.00 0.00 48 1012.4
20260901213203 83 264 0.0 0.0 0.00 0.00 0.00 48 1012.4
20260901212703 83 264 0.0 0.0 0.00 0.00 0.00 49 1012.4
20260901212203 83 264 0.0 0.0 0.00 0.00 0.00 46 1012.4
20260901211703 83 264 0.0 0.0 0.00 0.00 0.00 48 1012.4
20260901211203 83 264 0.0 0.0 0.00 0.00 0.00 48 1012.5
20260901210703 83 264 0.0 0.0 0.00 0.00 0.00 48 1012.5
20260901210203 83 8 0.0 0.0 0.00 0.00 0.00 48 1012.4
20260901205703 84 8 0.0 0.0 0.00 0.00 0.00 47 1012.3
20260901205203 84 8 0.0 0.0 0.00 0.00 0.00 48 1012.2
20260901204703 84 8 0.0 0.0 0.00 0.00 0.00 45 1012.4
20260901204202 85 8 0.0 0.0 0.00 0.00 0.00 44 1012.4
20260901203703 85 0 0.0 0.0 0.00 0.00 0.00 44 1012.5
20260901202703 86 0 0.0 0.0 0.00 0.00 0.00 43 1012.9
20260901202203 86 277 0.0 0.0 0.00 0.00 0.00 43 1012.8
20260901201703 86 28 0.0 0.0 0.00 0.00 0.00 43 1012.8
20260901200703 86 77 0.0 0.0 0.00 0.00 0.00 41 1012.8
20260901200203 86 331 0.0 0.0 0.00 0.00 0.00 44 1012.8
20260901195703 86 263 0.0 0.0 0.00 0.00 0.00 41 1013.0
20260901195203 86 288 0.0 0.0 0.00 0.00 0.00 43 1012.9
20260901193703 84 22 0.0 0.0 0.00 0.00 0.00 42 1013.0
20260901193203 84 26 0.0 0.0 0.00 0.00 0.00 44 1013.1
20260901192703 84 26 0.0 0.0 0.00 0.00 0.00 44 1013.1
20260901192203 84 26 0.0 0.0 0.00 0.00 0.00 44 1013.2
20260901191203 84 0 0.0 0.0 0.00 0.00 0.00 46 1013.2
20260901190703 84 7 0.0 0.0 0.00 0.00 0.00 44 1013.2
20260901190203 84 0 0.0 0.0 0.00 0.00 0.00 43 1013.0
20260901185703 84 263 0.0 0.0 0.00 0.00 0.00 46 1013.1
20260901184703 84 31 0.0 0.0 0.00 0.00 0.00 44 1013.1
20260901184203 84 8 0.0 0.0 0.00 0.00 0.00 42 1013.2
20260901182703 83 306 0.0 0.0 0.00 0.00 0.00 46 1013.2
20260901182203 82 222 0.0 0.0 0.00 0.00 0.00 50 1013.2
20260901181703 82 301 0.0 0.0 0.00 0.00 0.00 50 1013.3
20260901181204 82 0 0.0 0.0 0.00 0.00 0.00 48 1013.5
20260901180203 81 0 0.0 0.0 0.00 0.00 0.00 46 1013.6
20260901175703 82 333 0.0 0.0 0.00 0.00 0.00 50 1013.7
20260901175203 81 73 0.0 0.0 0.00 0.00 0.00 49 1013.7
20260901174203 81 276 0.0 0.0 0.00 0.00 0.00 56 1013.8
20260901173203 80 342 0.0 0.0 0.00 0.00 0.00 56 1013.8
20260901172704 80 339 0.0 0.0 0.00 0.00 0.00 57 1013.8
20260901172203 80 295 0.0 0.0 0.00 0.00 0.00 59 1014.0
20260901171203 80 247 0.0 0.0 0.00 0.00 0.00 61 1013.9
20260901170704 79 267 0.0 0.0 0.00 0.00 0.00 61 1013.9
20260901170203 79 307 0.0 0.0 0.00 0.00 0.00 60 1014.0
20260901165703 78 308 0.0 0.0 0.00 0.00 0.00 62 1014.0
20260901164703 78 6 0.0 0.0 0.00 0.00 0.00 62 1014.0
20260901164203 78 31 0.0 0.0 0.00 0.00 0.00 62 1014.1
20260901163703 78 5 0.0 0.0 0.00 0.00 0.00 63 1014.0
20260901163203 77 6 0.0 0.0 0.00 0.00 0.00 63 1014.0
20260901162203 77 15 0.0 0.0 0.00 0.00 0.00 68 1014.0
20260901161703 76 18 0.0 0.0 0.00 0.00 0.00 70 1014.0
20260901160703 76 15 0.0 0.0 0.00 0.00 0.00 75 1013.7
20260901155703 75 54 0.0 0.0 0.00 0.00 0.00 79 1013.8
20260901155203 75 53 0.0 0.0 0.00 0.00 0.00 81 1013.9
20260901154703 75 53 0.0 0.0 0.00 0.00 0.00 83 1014.0
20260901154204 74 53 0.0 0.0 0.00 0.00 0.00 83 1013.8
20260901153703 74 3 0.0 0.0 0.00 0.00 0.00 84 1013.8
20260901153204 74 35 0.0 0.0 0.00 0.00 0.00 86 1013.8
20260901152704 74 0 0.0 0.0 0.00 0.00 0.00 88 1013.9
20260901152203 73 351 0.0 0.0 0.00 0.00 0.00 91 1013.9
20260901151203 73 311 0.0 0.0 0.00 0.00 0.00 94 1013.9
20260901150703 73 31 0.0 0.0 0.00 0.00 0.00 95 1013.9
20260901145703 73 32 0.0 0.0 0.00 0.00 0.00 96 1014.0
20260901145203 72 314 0.0 0.0 0.00 0.00 0.00 99 1014.0
20260901144703 72 311 0.0 0.0 0.00 0.00 0.00 100 1014.0
20260901143704 71 0 0.0 0.0 0.00 0.00 0.00 100 1014.0
20260901143203 71 63 0.0 0.0 0.00 0.00 0.00 100 1014.1
20260901142703 71 38 0.0 0.0 0.00 0.00 0.00 100 1014.1
20260901141703 70 12 0.0 0.0 0.00 0.00 0.00 100 1014.1
20260901141204 70 35 0.0 0.0 0.00 0.00 0.00 100 1014.2
20260901140703 70 35 0.0 0.0 0.00 0.00 0.00 100 1014.2
20260901140204 69 352 0.0 0.0 0.00 0.00 0.00 100 1014.3
20260901134703 69 279 0.0 0.0 0.00 0.00 0.00 100 1014.2
20260901134203 68 315 0.0 0.0 0.00 0.00 0.00 100 1014.1
20260901133704 68 317 0.0 0.0 0.00 0.00 0.00 100 1014.2
20260901133203 68 288 0.0 0.0 0.00 0.00 0.00 100 1014.2
20260901132703 68 330 0.0 0.0 0.00 0.00 0.00 100 1014.2
20260901132204 68 309 0.0 0.0 0.00 0.00 0.00 100 1014.1
20260901131203 68 306 0.0 0.0 0.00 0.00 0.00 100 1014.0
20260901130203 67 306 0.0 0.0 0.00 0.00 0.00 100 1013.8
20260901124703 67 317 0.0 0.0 0.00 0.00 0.00 100 1013.9
20260901124203 67 318 0.0 0.0 0.00 0.00 0.00 100 1013.9
20260901123704 67 318 0.0 0.0 0.00 0.00 0.00 100 1013.9
20260901122704 66 318 0.0 0.0 0.00 0.00 0.00 100 1013.9
20260901122203 66 318 0.0 0.0 0.00 0.00 0.00 100 1013.9
20260901121704 66 318 0.0 0.0 0.00 0.00 0.00 100 1013.9
20260901120703 66 318 0.0 0.0 0.00 0.00 0.00 100 1013.7
20260901115704 66 318 0.0 0.0 0.00 0.00 0.00 100 1013.6
20260901115203 66 318 0.0 0.0 0.00 0.00 0.00 100 1013.4
20260901114703 66 318 0.0 0.0 0.00 0.00 0.00 100 1013.3
20260901113704 66 318 0.0 0.0 0.00 0.00 0.00 100 1013.4
20260901113203 66 318 0.0 0.0 0.00 0.00 0.00 100 1013.3
20260901112203 66 318 0.0 0.0 0.00 0.00 0.00 100 1013.3
20260901111704 66 318 0.0 0.0 0.00 0.00 0.00 100 1013.2
20260901111204 66 318 0.0 0.0 0.00 0.00 0.00 100 1013.1
20260901110703 66 318 0.0 0.0 0.00 0.00 0.00 100 1013.1
20260901110203 66 318 0.0 0.0 0.00 0.00 0.00 100 1013.2
20260901105704 66 318 0.0 0.0 0.00 0.00 0.00 100 1013.0
20260901104203 66 307 0.0 0.0 0.00 0.00 0.00 99 1012.7
20260901103703 66 24 0.0 0.0 0.00 0.00 0.00 99 1012.7
20260901102703 66 24 0.0 0.0 0.00 0.00 0.00 99 1012.6
20260901102204 66 24 0.0 0.0 0.00 0.00 0.00 99 1012.5
20260901101704 66 24 0.0 0.0 0.00 0.00 0.00 99 1012.5
20260901101203 66 24 0.0 0.0 0.00 0.00 0.00 99 1012.7
20260901100703 66 24 0.0 0.0 0.00 0.00 0.00 98 1012.7
20260901100203 66 24 0.0 0.0 0.00 0.00 0.00 97 1012.6
20260901095204 67 24 0.0 0.0 0.00 0.00 0.00 97 1012.6
20260901094703 67 24 0.0 0.0 0.00 0.00 0.00 97 1012.5
20260901093704 67 24 0.0 0.0 0.00 0.00 0.00 96 1012.5
20260901092204 67 24 0.0 0.0 0.00 0.00 0.00 95 1012.4
20260901091704 67 24 0.0 0.0 0.00 0.00 0.00 95 1012.5
20260901091204 67 24 0.0 0.0 0.00 0.00 0.00 95 1012.4
20260901090703 67 24 0.0 0.0 0.00 0.00 0.00 95 1012.4
20260901090204 67 24 0.0 0.0 0.00 0.00 0.00 95 1012.3
20260901085703 67 24 0.0 0.0 0.00 0.00 0.00 94 1012.3
20260901085203 67 24 0.0 0.0 0.00 0.00 0.00 94 1012.4
20260901084703 67 24 0.0 0.0 0.00 0.00 0.00 94 1012.6
20260901084204 67 24 0.0 0.0 0.00 0.00 0.00 93 1012.5
20260901083704 67 24 0.0 0.0 0.00 0.00 0.00 93 1012.5
20260901082703 68 24 0.0 0.0 0.00 0.00 0.00 92 1012.6
20260901082202 68 24 0.0 0.0 0.00 0.00 0.00 91 1012.5
20260901081702 68 24 0.0 0.0 0.00 0.00 0.00 91 1012.4
20260901081202 68 24 0.0 0.0 0.00 0.00 0.00 91 1012.5
20260901080202 68 24 0.0 0.0 0.00 0.00 0.00 90 1012.6
20260901075702 68 24 0.0 0.0 0.00 0.00 0.00 89 1012.6
20260901074702 68 24 0.0 0.0 0.00 0.00 0.00 89 1012.6
20260901074202 68 24 0.0 0.0 0.00 0.00 0.00 89 1012.6
20260901073702 68 24 0.0 0.0 0.00 0.00 0.00 89 1012.7
20260901073202 68 24 0.0 0.0 0.00 0.00 0.00 88 1012.6
20260901072702 69 24 0.0 0.0 0.00 0.00 0.00 87 1012.6
20260901072203 69 24 0.0 0.0 0.00 0.00 0.00 88 1012.7
20260901071703 69 24 0.0 0.0 0.00 0.00 0.00 88 1012.8
20260901071202 69 24 0.0 0.0 0.00 0.00 0.00 88 1012.8
20260901070702 69 24 0.0 0.0 0.00 0.00 0.00 87 1012.8
20260901070202 69 24 0.0 0.0 0.00 0.00 0.00 86 1012.8
20260901065703 69 24 0.0 0.0 0.00 0.00 0.00 86 1012.9
20260901065202 69 24 0.0 0.0 0.00 0.00 0.00 86 1012.9
20260901064702 69 24 0.0 0.0 0.00 0.00 0.00 85 1012.9
20260901064202 69 24 0.0 0.0 0.00 0.00 0.00 85 1013.0
20260901063702 69 24 0.0 0.0 0.00 0.00 0.00 85 1013.0
20260901063203 69 24 0.0 0.0 0.00 0.00 0.00 85 1013.2
20260901062202 70 24 0.0 0.0 0.00 0.00 0.00 84 1013.2
20260901061703 70 24 0.0 0.0 0.00 0.00 0.00 83 1013.2
20260901061202 70 24 0.0 0.0 0.00 0.00 0.00 83 1013.1
20260901055702 70 24 0.0 0.0 0.00 0.00 0.00 83 1013.0
20260901054702 71 24 0.0 0.0 0.00 0.00 0.00 83 1012.9
20260901054203 71 24 0.0 0.0 0.00 0.00 0.00 82 1012.9
20260901053202 71 24 0.0 0.0 0.00 0.00 0.00 82 1012.8
20260901052203 71 24 0.0 0.0 0.00 0.00 0.00 81 1012.8
20260901051702 71 24 0.0 0.0 0.00 0.00 0.00 81 1012.6
20260901051202 71 24 0.0 0.0 0.00 0.00 0.00 81 1012.6
20260901050702 72 24 0.0 0.0 0.00 0.00 0.00 81 1012.6
20260901050202 72 24 0.0 0.0 0.00 0.00 0.00 81 1012.5
20260901045703 72 24 0.0 0.0 0.00 0.00 0.00 81 1012.5
20260901044202 72 24 0.0 0.0 0.00 0.00 0.00 81 1012.4
20260901043703 72 24 0.0 0.0 0.00 0.00 0.00 80 1012.4
20260901043202 72 24 0.0 0.0 0.00 0.00 0.00 80 1012.3